Location: Krakow
(50.0212°N, 19.9423°E)
Time: 13:28:18
(UTC+02:00)

NOAA 18 - Pass Details

Date: 01 May 2025
Orbit: 837 x 857 km, 98.8° (Epoch: 14 May)

Event Time Altitude Azimuth Distance (km) Brightness Sun altitude
Exits shadow 23:55:08 22° 238° (WSW) 1,774 6.7 -24.0°
Maximum altitude 23:56:55 26° 267° (W) 1,615 6.7 -24.0°
Drops below altitude 10° 00:01:33 10° 324° (NW) 2,502 8.5 -24.1°
Sets 00:04:20 0° 337° (NNW) 3,442 9.7 -24.2°
